Location: Étouvelles
(49.5207°N, 3.5808°E)
Time: 15:48:01
(UTC+00:00)

USA 281 - Pass Details

Date: 03 February 2023
Orbit: 1079 x 1080 km, 106.0° (Epoch: 19 March)

Event Time Altitude Azimuth Distance (km) Brightness Sun altitude
Rises 17:05:31 0° 25° (NNE) 3,891 5.7 -4.0°
Reaches altitude 10° 17:08:03 10° 23° (NNE) 2,932 5.1 -4.4°
Maximum altitude 17:14:36 71° 301° (WNW) 1,140 3.6 -5.4°
Drops below altitude 10° 17:21:06 10° 219° (SW) 2,915 6.5 -6.4°
Sets 17:23:37 0° 217° (SW) 3,867 7.1 -6.8°
